Regional Weather Roundup
Issued by NWS

Home | Current Version | Previous Version | Graphics & Text | Print | Product List | Glossary On
Versions: 1 2 3 4 5 6 7 8 9 10 11 12 13 14 15 16 17 18 19 20 21 22 23 24 25 26 27 28 29 30 31 32 33 34 35 36 37 38 39 40 41 42 43 44 45 46 47 48 49 50
000
ASUS43 KIND 281359
RWRIN

WEATHER ROUNDUP FOR INDIANA
NATIONAL WEATHER SERVICE INDIANAPOLIS IN
1000 AM EDT THU APR 28 2016

NOTE: "FAIR" INDICATES FEW OR NO CLOUDS BELOW 12,000 FEET WITH NO
SIGNIFICANT WEATHER AND/OR OBSTRUCTIONS TO VISIBILITY.

* - STATION DOES NOT REPORT WEATHER SUCH AS PRECIPITATION OR FOG.

+ - STATION NOT QUALITY CONTROLLED BY THE NATIONAL WEATHER SERVICE.
    USE DATA WITH CAUTION...ESPECIALLY DEWPOINT AND RELATIVE
    HUMIDITY OBSERVATIONS.

INZ001>003-010>013-019-020-281500-
NORTHWEST INDIANA

CITY           SKY/WX    TMP DP  RH WIND       PRES   REMARKS
MONTICELLO +   CLOUDY    49  44  85 E7        29.82R
RENSSELAER +   CLOUDY    46  45  93 E13       29.83S

$$

LMZ046-743>745-281500-
SOUTHERN LAKE MICHIGAN

STATION/POSITION TIME  TEMP    WIND        PRES    WAVE
                       AIR SEA DIR/SP/G            HT
                 (UTC) (F)     (DEG/KT/KT) (MB)    (FT)
BURNS HARBOR     1300   47     140/  9/ 17 1010.5R
MICHIGAN CITY    1300   44      90/  9/ 11   N/A

$$

INZ004-005-014>016-021>024-281500-
NORTH CENTRAL INDIANA

CITY           SKY/WX    TMP DP  RH WIND       PRES   REMARKS
ELKHART        CLOUDY    43  41  93 E10G16    29.87
GOSHEN         PTSUNNY   46  40  79 E16G25    29.86R
SOUTH BEND     PTSUNNY   44  38  79 SE16      29.89R

$$

INZ006>009-017-018-025>027-281500-
NORTHEAST INDIANA

CITY           SKY/WX    TMP DP  RH WIND       PRES   REMARKS
ANGOLA *+      CLOUDY    41  39  93 E18       29.87F
FORT WAYNE     CLOUDY    45  41  86 E20       29.86F

$$

INZ028-029-035-036-043>045-051>053-281500-
WEST CENTRAL INDIANA

CITY           SKY/WX    TMP DP  RH WIND       PRES   REMARKS
CRAWFORDSVL +  CLOUDY    54  54 100 SE7       29.81R
GREENCASTLE +  FAIR      61  61 100 S6        29.80S
LAFAYETTE      CLOUDY    50  47  89 E8        29.82R
TERRE HAUTE    FAIR      64  59  83 SE7       29.80R

$$

INZ030>032-037>040-046>048-054>057-064-065-281500-
CENTRAL INDIANA

CITY           SKY/WX    TMP DP  RH WIND       PRES   REMARKS
ANDERSON       PTSUNNY   50  50 100 E12       29.82F
CP ATTERBURY + FAIR      61  55  82 SE8       29.81S
COLUMBUS       PTSUNNY   59  57  94 E7        29.81S
INDIANAPOLIS   CLOUDY    55  53  93 SE6       29.79R FOG
-EAGLE CREEK   CLOUDY    54  53  97 E5        29.80S FOG
KOKOMO *+      CLOUDY    48  45  87 E12       29.82S
SHELBYVILLE    FAIR      63  56  78 SE8       29.80R

$$

INZ033-034-041-042-049-050-058-059-281500-
EAST CENTRAL INDIANA

CITY           SKY/WX    TMP DP  RH WIND       PRES   REMARKS
MUNCIE         CLOUDY    50  46  86 E14       29.82F

$$

INZ060-061-067>069-081>083-085>088-281500-
SOUTHWEST INDIANA

CITY           SKY/WX    TMP DP  RH WIND       PRES   REMARKS
EVANSVILLE     FAIR      66  59  78 W8        29.83R
HUNTINGBURG *+ PTSUNNY   66  63  88 SW6       29.82R

$$

INZ062-063-066-070>080-084-089>092-281500-
SOUTH CENTRAL AND SOUTHEAST INDIANA

CITY           SKY/WX    TMP DP  RH WIND       PRES   REMARKS
BLOOMINGTON    CLOUDY    64  61  90 SE7       29.80S
MADISON *+     CLOUDY    63  61  94 SW5       29.84S
SEYMOUR +      CLOUDY    64  63  94 CALM      29.81S

$$




USA.gov is the U.S. government's official web portal to all federal, state and local government web resources and services.